| time (UTC) | temp F | wind direction | speed MPH | gust MPH | rain 1hr in | rain 24hr in | rain mn in | humidity % | barometer mb |
| 20260506051032 | 47 | 20 | 0.0 | 2.0 | 0.01 | 0.40 | 0.00 | 81 | 1016.8 |
| 20260506050530 | 47 | 20 | 0.0 | 2.0 | 0.01 | 0.40 | 0.00 | 81 | 1016.7 |
| 20260506044528 | 47 | 16 | 1.0 | 2.0 | 0.03 | 0.40 | 0.40 | 79 | 1016.9 |
| 20260506044029 | 47 | 9 | 1.0 | 2.0 | 0.03 | 0.40 | 0.40 | 79 | 1016.9 |
| 20260506043028 | 47 | 317 | 1.0 | 6.0 | 0.02 | 0.39 | 0.39 | 77 | 1017.0 |
| 20260506042527 | 48 | 306 | 1.0 | 7.0 | 0.02 | 0.39 | 0.39 | 76 | 1017.0 |
| 20260506042025 | 48 | 350 | 2.0 | 7.0 | 0.02 | 0.39 | 0.39 | 76 | 1017.0 |
| 20260506041525 | 48 | 5 | 2.0 | 9.0 | 0.02 | 0.39 | 0.39 | 75 | 1017.1 |
| 20260506041026 | 48 | 355 | 3.0 | 9.0 | 0.02 | 0.39 | 0.39 | 74 | 1017.1 |
| 20260506040523 | 49 | 288 | 4.0 | 11.0 | 0.02 | 0.39 | 0.39 | 73 | 1017.2 |
| 20260506040021 | 49 | 304 | 5.0 | 14.0 | 0.01 | 0.38 | 0.38 | 72 | 1017.0 |
| 20260506035524 | 50 | 284 | 4.0 | 14.0 | 0.01 | 0.38 | 0.38 | 69 | 1016.9 |
| 20260506035022 | 50 | 316 | 3.0 | 11.0 | 0.01 | 0.38 | 0.38 | 66 | 1016.8 |
| 20260506034521 | 51 | 338 | 2.0 | 11.0 | 0.00 | 0.37 | 0.38 | 65 | 1016.7 |
| 20260506034022 | 51 | 306 | 2.0 | 9.0 | 0.00 | 0.37 | 0.37 | 65 | 1016.6 |
| 20260506033521 | 51 | 309 | 2.0 | 9.0 | 0.00 | 0.37 | 0.37 | 63 | 1016.5 |
| 20260506033020 | 51 | 73 | 2.0 | 5.0 | 0.00 | 0.37 | 0.37 | 64 | 1016.5 |
| 20260506032519 | 51 | 286 | 2.0 | 5.0 | 0.00 | 0.37 | 0.37 | 66 | 1016.5 |
| 20260506032019 | 51 | 310 | 1.0 | 5.0 | 0.00 | 0.37 | 0.37 | 70 | 1016.3 |
| 20260506031518 | 51 | 305 | 1.0 | 3.0 | 0.00 | 0.37 | 0.37 | 68 | 1015.9 |
| 20260506031017 | 51 | 254 | 0.0 | 3.0 | 0.00 | 0.37 | 0.37 | 68 | 1015.6 |
| 20260506030515 | 51 | 331 | 0.0 | 3.0 | 0.00 | 0.37 | 0.37 | 66 | 1015.4 |
| 20260506030013 | 52 | 330 | 0.0 | 3.0 | 0.00 | 0.37 | 0.37 | 66 | 1015.5 |
| 20260506025513 | 52 | 0 | 0.0 | 1.0 | 0.00 | 0.37 | 0.37 | 66 | 1015.3 |
| 20260506025013 | 52 | 0 | 0.0 | 0.0 | 0.00 | 0.37 | 0.37 | 65 | 1015.0 |
| 20260506024513 | 52 | 0 | 0.0 | 2.0 | 0.00 | 0.37 | 0.37 | 65 | 1014.9 |
| 20260506024013 | 52 | 0 | 0.0 | 2.0 | 0.00 | 0.37 | 0.37 | 65 | 1014.8 |
| 20260506023513 | 52 | 0 | 0.0 | 4.0 | 0.00 | 0.37 | 0.37 | 65 | 1014.9 |
| 20260506023012 | 52 | 325 | 0.0 | 4.0 | 0.00 | 0.37 | 0.37 | 64 | 1014.6 |
| 20260506022512 | 52 | 47 | 1.0 | 3.0 | 0.00 | 0.37 | 0.37 | 64 | 1014.4 |
| 20260506022012 | 52 | 290 | 1.0 | 4.0 | 0.00 | 0.37 | 0.37 | 64 | 1014.4 |
| 20260506021512 | 52 | 283 | 1.0 | 4.0 | 0.00 | 0.37 | 0.37 | 64 | 1014.4 |
| 20260506021016 | 52 | 236 | 1.0 | 3.0 | 0.00 | 0.37 | 0.37 | 64 | 1014.3 |
| 20260506020515 | 52 | 233 | 0.0 | 3.0 | 0.00 | 0.37 | 0.37 | 65 | 1014.3 |
| 20260506020015 | 52 | 297 | 1.0 | 7.0 | 0.00 | 0.37 | 0.37 | 65 | 1014.2 |
| 20260506015515 | 52 | 297 | 1.0 | 7.0 | 0.00 | 0.37 | 0.37 | 64 | 1014.1 |
| 20260506015013 | 53 | 306 | 1.0 | 3.0 | 0.00 | 0.37 | 0.37 | 65 | 1014.1 |
| 20260506014513 | 53 | 305 | 1.0 | 3.0 | 0.00 | 0.37 | 0.37 | 65 | 1014.0 |
| 20260506014013 | 53 | 304 | 1.0 | 3.0 | 0.00 | 0.37 | 0.37 | 64 | 1013.8 |
| 20260506013513 | 53 | 304 | 1.0 | 3.0 | 0.00 | 0.37 | 0.37 | 64 | 1013.7 |
| 20260506013012 | 53 | 309 | 1.0 | 3.0 | 0.00 | 0.37 | 0.37 | 64 | 1013.8 |
| 20260506012512 | 53 | 309 | 1.0 | 3.0 | 0.00 | 0.37 | 0.37 | 63 | 1013.7 |
| 20260506012013 | 53 | 311 | 1.0 | 3.0 | 0.00 | 0.37 | 0.37 | 63 | 1013.8 |
| 20260506011512 | 53 | 315 | 1.0 | 3.0 | 0.00 | 0.37 | 0.37 | 63 | 1013.7 |
| 20260506011007 | 53 | 302 | 1.0 | 3.0 | 0.00 | 0.37 | 0.37 | 63 | 1013.7 |
| 20260506010500 | 54 | 285 | 0.0 | 2.0 | 0.00 | 0.37 | 0.37 | 62 | 1013.7 |
| 20260506005953 | 54 | 284 | 0.0 | 2.0 | 0.00 | 0.37 | 0.37 | 62 | 1013.6 |
| 20260506005453 | 54 | 284 | 0.0 | 2.0 | 0.00 | 0.37 | 0.37 | 62 | 1013.6 |
| 20260506004452 | 54 | 308 | 0.0 | 2.0 | 0.00 | 0.37 | 0.37 | 62 | 1013.4 |
| 20260506003952 | 54 | 308 | 0.0 | 2.0 | 0.00 | 0.37 | 0.37 | 62 | 1013.2 |
| 20260506003452 | 54 | 303 | 0.0 | 2.0 | 0.00 | 0.37 | 0.37 | 61 | 1013.3 |
| 20260506002955 | 55 | 304 | 0.0 | 3.0 | 0.00 | 0.37 | 0.37 | 61 | 1013.2 |
| 20260506002455 | 55 | 303 | 0.0 | 3.0 | 0.00 | 0.37 | 0.37 | 61 | 1013.0 |
| 20260506001952 | 55 | 305 | 0.0 | 4.0 | 0.00 | 0.37 | 0.37 | 61 | 1013.0 |
| 20260506000950 | 55 | 269 | 1.0 | 3.0 | 0.00 | 0.37 | 0.37 | 60 | 1012.8 |
| 20260506000452 | 55 | 304 | 1.0 | 3.0 | 0.00 | 0.37 | 0.37 | 59 | 1012.8 |
| 20260505235951 | 55 | 48 | 1.0 | 3.0 | 0.00 | 0.37 | 0.37 | 60 | 1012.8 |
| 20260505234449 | 55 | 304 | 1.0 | 4.0 | 0.00 | 0.37 | 0.37 | 59 | 1013.2 |
| 20260505233948 | 55 | 328 | 1.0 | 3.0 | 0.00 | 0.37 | 0.37 | 60 | 1013.3 |
| 20260505233450 | 55 | 347 | 1.0 | 4.0 | 0.00 | 0.37 | 0.37 | 58 | 1013.3 |
| 20260505232944 | 55 | 299 | 1.0 | 6.0 | 0.00 | 0.37 | 0.37 | 59 | 1013.2 |
| 20260505231932 | 55 | 58 | 1.0 | 5.0 | 0.00 | 0.37 | 0.37 | 60 | 1012.8 |
| 20260505230922 | 55 | 297 | 2.0 | 4.0 | 0.00 | 0.37 | 0.37 | 64 | 1012.7 |
| 20260505230414 | 55 | 339 | 2.0 | 8.0 | 0.00 | 0.37 | 0.37 | 67 | 1012.7 |
| 20260505225402 | 55 | 302 | 2.0 | 7.0 | 0.00 | 0.37 | 0.37 | 69 | 1012.7 |
| 20260505224856 | 55 | 306 | 2.0 | 7.0 | 0.00 | 0.37 | 0.37 | 70 | 1012.7 |
| 20260505224351 | 55 | 287 | 2.0 | 8.0 | 0.00 | 0.37 | 0.37 | 71 | 1012.8 |
| 20260505223845 | 55 | 221 | 1.0 | 8.0 | 0.00 | 0.37 | 0.37 | 72 | 1012.9 |
| 20260505222327 | 55 | 297 | 1.0 | 5.0 | 0.00 | 0.37 | 0.37 | 74 | 1012.7 |
| 20260505221316 | 55 | 305 | 2.0 | 5.0 | 0.00 | 0.37 | 0.37 | 74 | 1012.5 |
| 20260505220307 | 54 | 303 | 2.0 | 8.0 | 0.00 | 0.37 | 0.37 | 74 | 1012.8 |
| 20260505215756 | 54 | 313 | 2.0 | 8.0 | 0.00 | 0.37 | 0.37 | 73 | 1012.9 |
| 20260505215251 | 55 | 301 | 1.0 | 3.0 | 0.00 | 0.37 | 0.37 | 75 | 1012.9 |
| 20260505214750 | 54 | 301 | 2.0 | 5.0 | 0.00 | 0.37 | 0.37 | 75 | 1013.2 |
| 20260505214240 | 54 | 305 | 2.0 | 7.0 | 0.00 | 0.37 | 0.37 | 75 | 1013.2 |
| 20260505213733 | 54 | 302 | 2.0 | 7.0 | 0.00 | 0.37 | 0.37 | 74 | 1013.2 |
| 20260505213226 | 54 | 304 | 1.0 | 4.0 | 0.00 | 0.37 | 0.37 | 75 | 1013.3 |
| 20260505212720 | 54 | 299 | 1.0 | 3.0 | 0.00 | 0.37 | 0.37 | 75 | 1013.2 |
| 20260505212215 | 54 | 299 | 1.0 | 4.0 | 0.00 | 0.37 | 0.37 | 74 | 1013.3 |
| 20260505211709 | 54 | 305 | 1.0 | 5.0 | 0.00 | 0.37 | 0.37 | 74 | 1013.3 |
| 20260505211203 | 54 | 325 | 1.0 | 5.0 | 0.00 | 0.37 | 0.37 | 74 | 1013.3 |
| 20260505210656 | 54 | 294 | 1.0 | 4.0 | 0.00 | 0.37 | 0.37 | 74 | 1013.4 |
| 20260505210151 | 54 | 313 | 2.0 | 7.0 | 0.00 | 0.37 | 0.37 | 74 | 1013.4 |
| 20260505205644 | 54 | 289 | 1.0 | 7.0 | 0.00 | 0.37 | 0.37 | 74 | 1013.5 |
| 20260505205139 | 54 | 304 | 1.0 | 4.0 | 0.00 | 0.37 | 0.37 | 74 | 1013.5 |
| 20260505204632 | 54 | 299 | 1.0 | 4.0 | 0.00 | 0.37 | 0.37 | 74 | 1013.6 |
| 20260505204126 | 54 | 291 | 1.0 | 4.0 | 0.00 | 0.37 | 0.37 | 73 | 1013.5 |
| 20260505203114 | 54 | 128 | 2.0 | 5.0 | 0.00 | 0.37 | 0.37 | 71 | 1013.5 |
| 20260505202608 | 54 | 40 | 2.0 | 4.0 | 0.00 | 0.37 | 0.37 | 72 | 1013.5 |
| 20260505202102 | 54 | 306 | 2.0 | 4.0 | 0.00 | 0.37 | 0.37 | 73 | 1013.6 |
| 20260505201557 | 53 | 300 | 1.0 | 5.0 | 0.00 | 0.37 | 0.37 | 73 | 1013.7 |
| 20260505201050 | 53 | 304 | 1.0 | 5.0 | 0.00 | 0.37 | 0.37 | 72 | 1013.9 |
| 20260505200545 | 53 | 306 | 1.0 | 4.0 | 0.00 | 0.37 | 0.37 | 71 | 1013.8 |
| 20260505200039 | 53 | 329 | 1.0 | 6.0 | 0.00 | 0.37 | 0.37 | 72 | 1013.7 |
| 20260505195533 | 53 | 56 | 1.0 | 4.0 | 0.00 | 0.37 | 0.37 | 73 | 1013.6 |
| 20260505195026 | 53 | 5 | 1.0 | 4.0 | 0.00 | 0.37 | 0.37 | 73 | 1013.7 |
| 20260505194522 | 53 | 66 | 1.0 | 4.0 | 0.00 | 0.37 | 0.37 | 73 | 1013.9 |
| 20260505194016 | 53 | 13 | 1.0 | 2.0 | 0.00 | 0.37 | 0.37 | 75 | 1013.8 |
| 20260505193514 | 53 | 298 | 1.0 | 3.0 | 0.00 | 0.37 | 0.37 | 74 | 1014.0 |
| 20260505193014 | 53 | 298 | 1.0 | 3.0 | 0.00 | 0.37 | 0.37 | 75 | 1014.2 |
| 20260505192012 | 53 | 294 | 1.0 | 4.0 | 0.00 | 0.37 | 0.37 | 76 | 1014.0 |
| 20260505191512 | 53 | 296 | 1.0 | 6.0 | 0.00 | 0.37 | 0.37 | 76 | 1013.9 |
| 20260505191012 | 53 | 40 | 1.0 | 6.0 | 0.00 | 0.37 | 0.37 | 76 | 1014.1 |
| 20260505190510 | 52 | 5 | 1.0 | 4.0 | 0.00 | 0.37 | 0.37 | 78 | 1014.1 |
| 20260505185510 | 52 | 286 | 1.0 | 2.0 | 0.00 | 0.37 | 0.37 | 78 | 1014.2 |
| 20260505185007 | 51 | 0 | 1.0 | 2.0 | 0.00 | 0.37 | 0.37 | 79 | 1014.2 |
| 20260505184507 | 51 | 38 | 1.0 | 3.0 | 0.00 | 0.37 | 0.37 | 80 | 1014.1 |
| 20260505184008 | 51 | 36 | 1.0 | 6.0 | 0.00 | 0.37 | 0.37 | 80 | 1014.0 |
| 20260505183507 | 51 | 89 | 1.0 | 6.0 | 0.00 | 0.37 | 0.37 | 80 | 1014.1 |
| 20260505183008 | 51 | 96 | 0.0 | 3.0 | 0.00 | 0.37 | 0.37 | 81 | 1013.9 |
| 20260505182508 | 51 | 97 | 1.0 | 3.0 | 0.00 | 0.37 | 0.37 | 81 | 1014.1 |
| 20260505182008 | 50 | 123 | 1.0 | 4.0 | 0.00 | 0.37 | 0.37 | 81 | 1014.0 |
| 20260505181008 | 50 | 96 | 1.0 | 3.0 | 0.00 | 0.37 | 0.37 | 82 | 1014.2 |
| 20260505180508 | 50 | 113 | 1.0 | 3.0 | 0.00 | 0.37 | 0.37 | 83 | 1014.0 |
| 20260505175508 | 50 | 95 | 1.0 | 6.0 | 0.00 | 0.37 | 0.37 | 83 | 1014.2 |
| 20260505175007 | 50 | 97 | 2.0 | 6.0 | 0.00 | 0.37 | 0.37 | 83 | 1014.5 |
| 20260505174511 | 50 | 74 | 1.0 | 4.0 | 0.01 | 0.37 | 0.37 | 85 | 1014.5 |
| 20260505173011 | 49 | 113 | 1.0 | 6.0 | 0.01 | 0.37 | 0.37 | 85 | 1014.5 |
| 20260505172507 | 49 | 113 | 1.0 | 6.0 | 0.01 | 0.37 | 0.37 | 85 | 1014.7 |
| 20260505172008 | 49 | 19 | 0.0 | 4.0 | 0.01 | 0.37 | 0.37 | 85 | 1014.5 |
| 20260505171006 | 49 | 94 | 1.0 | 4.0 | 0.01 | 0.37 | 0.37 | 85 | 1014.6 |
| 20260505170504 | 49 | 89 | 1.0 | 4.0 | 0.01 | 0.37 | 0.37 | 85 | 1014.5 |
| 20260505170000 | 49 | 97 | 0.0 | 3.0 | 0.01 | 0.37 | 0.37 | 85 | 1014.5 |
| 20260505165454 | 49 | 97 | 1.0 | 6.0 | 0.01 | 0.37 | 0.37 | 85 | 1014.5 |
| 20260505164947 | 49 | 17 | 1.0 | 6.0 | 0.01 | 0.37 | 0.37 | 85 | 1014.3 |
| 20260505164441 | 49 | 76 | 2.0 | 4.0 | 0.01 | 0.36 | 0.36 | 85 | 1014.3 |
| 20260505163935 | 48 | 92 | 1.0 | 6.0 | 0.01 | 0.36 | 0.36 | 85 | 1014.2 |
| 20260505163429 | 49 | 305 | 1.0 | 6.0 | 0.01 | 0.36 | 0.36 | 85 | 1014.2 |
| 20260505162417 | 49 | 65 | 1.0 | 7.0 | 0.01 | 0.36 | 0.36 | 85 | 1013.9 |
| 20260505161910 | 49 | 100 | 0.0 | 7.0 | 0.01 | 0.36 | 0.36 | 86 | 1014.0 |
| 20260505161404 | 49 | 224 | 1.0 | 7.0 | 0.01 | 0.36 | 0.36 | 87 | 1014.3 |
| 20260505160859 | 49 | 96 | 1.0 | 7.0 | 0.01 | 0.36 | 0.36 | 87 | 1014.0 |
| 20260505160352 | 49 | 93 | 1.0 | 6.0 | 0.01 | 0.36 | 0.36 | 88 | 1013.9 |
| 20260505153318 | 48 | 11 | 0.0 | 4.0 | 0.00 | 0.35 | 0.35 | 89 | 1014.0 |
| 20260505152305 | 47 | 68 | 1.0 | 3.0 | 0.00 | 0.35 | 0.35 | 89 | 1014.1 |
| 20260505151759 | 47 | 95 | 1.0 | 3.0 | 0.00 | 0.35 | 0.35 | 89 | 1013.9 |
| 20260505150747 | 47 | 32 | 1.0 | 4.0 | 0.00 | 0.35 | 0.35 | 89 | 1014.3 |
| 20260505150241 | 47 | 350 | 1.0 | 3.0 | 0.00 | 0.35 | 0.35 | 89 | 1014.3 |
| 20260505140636 | 47 | 18 | 0.0 | 3.0 | 0.07 | 0.35 | 0.35 | 89 | 1013.4 |
| 20260505140129 | 47 | 58 | 0.0 | 1.0 | 0.07 | 0.35 | 0.35 | 89 | 1013.2 |
| 20260505124549 | 48 | 9 | 1.0 | 2.0 | 0.12 | 0.26 | 0.27 | 86 | 1012.7 |
| 20260505124049 | 48 | 5 | 1.0 | 2.0 | 0.11 | 0.25 | 0.25 | 85 | 1012.6 |
| 20260505123549 | 48 | 275 | 1.0 | 3.0 | 0.11 | 0.25 | 0.25 | 84 | 1013.5 |
| 20260505123047 | 48 | 275 | 1.0 | 3.0 | 0.11 | 0.25 | 0.25 | 83 | 1013.5 |
| 20260505122547 | 48 | 315 | 1.0 | 3.0 | 0.11 | 0.25 | 0.25 | 82 | 1012.6 |
| 20260505122047 | 48 | 46 | 1.0 | 3.0 | 0.11 | 0.24 | 0.25 | 82 | 1012.2 |
| 20260505121546 | 49 | 41 | 0.0 | 3.0 | 0.10 | 0.23 | 0.23 | 81 | 1011.8 |
| 20260505121044 | 49 | 45 | 1.0 | 3.0 | 0.07 | 0.20 | 0.20 | 80 | 1011.9 |
| 20260505120546 | 49 | 45 | 1.0 | 4.0 | 0.02 | 0.14 | 0.14 | 79 | 1012.2 |
| 20260505120047 | 49 | 44 | 1.0 | 4.0 | 0.02 | 0.14 | 0.14 | 79 | 1012.7 |
| 20260505115543 | 49 | 265 | 1.0 | 4.0 | 0.02 | 0.14 | 0.14 | 78 | 1012.6 |
| 20260505115035 | 49 | 82 | 0.0 | 3.0 | 0.03 | 0.14 | 0.14 | 78 | 1010.4 |
| 20260505114536 | 49 | 86 | 1.0 | 4.0 | 0.07 | 0.14 | 0.14 | 77 | 1010.2 |
| 20260505114023 | 49 | 88 | 1.0 | 4.0 | 0.07 | 0.14 | 0.14 | 77 | 1010.2 |
| 20260505113517 | 49 | 108 | 0.0 | 4.0 | 0.07 | 0.14 | 0.14 | 76 | 1010.1 |
| 20260505113012 | 50 | 70 | 0.0 | 2.0 | 0.07 | 0.14 | 0.14 | 76 | 1010.2 |
| 20260505112506 | 50 | 71 | 0.0 | 3.0 | 0.07 | 0.14 | 0.14 | 75 | 1010.3 |
| 20260505112000 | 50 | 81 | 0.0 | 3.0 | 0.06 | 0.13 | 0.13 | 74 | 1010.5 |
| 20260505110953 | 51 | 355 | 1.0 | 5.0 | 0.05 | 0.12 | 0.13 | 71 | 1011.1 |
| 20260505101952 | 54 | 74 | 2.0 | 12.0 | 0.00 | 0.07 | 0.07 | 53 | 1009.6 |
| 20260505101452 | 54 | 42 | 2.0 | 9.0 | 0.00 | 0.07 | 0.07 | 53 | 1009.6 |
| 20260505100449 | 54 | 300 | 2.0 | 9.0 | 0.00 | 0.07 | 0.07 | 53 | 1009.5 |
| 20260505095449 | 54 | 11 | 2.0 | 8.0 | 0.00 | 0.07 | 0.07 | 53 | 1010.1 |
| 20260505094949 | 54 | 37 | 2.0 | 7.0 | 0.00 | 0.07 | 0.07 | 53 | 1009.8 |
| 20260505093948 | 54 | 92 | 2.0 | 7.0 | 0.00 | 0.07 | 0.07 | 52 | 1009.7 |
| 20260505093450 | 54 | 88 | 2.0 | 7.0 | 0.00 | 0.07 | 0.07 | 53 | 1009.8 |
| 20260505092949 | 54 | 17 | 3.0 | 7.0 | 0.00 | 0.07 | 0.07 | 52 | 1010.0 |
| 20260505092449 | 54 | 49 | 3.0 | 8.0 | 0.00 | 0.07 | 0.07 | 53 | 1009.8 |
| 20260505091949 | 54 | 103 | 3.0 | 8.0 | 0.00 | 0.07 | 0.07 | 53 | 1010.0 |
| 20260505091448 | 54 | 0 | 2.0 | 7.0 | 0.00 | 0.07 | 0.07 | 53 | 1009.8 |
| 20260505090948 | 54 | 272 | 2.0 | 6.0 | 0.00 | 0.07 | 0.07 | 53 | 1009.8 |
| 20260505090449 | 54 | 342 | 1.0 | 6.0 | 0.00 | 0.07 | 0.07 | 53 | 1009.8 |
| 20260505085448 | 54 | 355 | 2.0 | 5.0 | 0.00 | 0.07 | 0.07 | 53 | 1009.7 |
| 20260505084949 | 54 | 22 | 1.0 | 4.0 | 0.00 | 0.07 | 0.07 | 53 | 1009.7 |
| 20260505084449 | 54 | 9 | 1.0 | 5.0 | 0.00 | 0.07 | 0.07 | 53 | 1009.8 |
| 20260505083950 | 55 | 26 | 2.0 | 6.0 | 0.00 | 0.07 | 0.07 | 53 | 1009.6 |
| 20260505083444 | 55 | 71 | 2.0 | 6.0 | 0.00 | 0.07 | 0.07 | 53 | 1009.5 |
| 20260505082943 | 55 | 92 | 2.0 | 6.0 | 0.00 | 0.07 | 0.07 | 53 | 1009.4 |
| 20260505082443 | 55 | 268 | 2.0 | 6.0 | 0.00 | 0.07 | 0.07 | 54 | 1009.3 |
| 20260505081943 | 55 | 355 | 2.0 | 6.0 | 0.00 | 0.07 | 0.07 | 52 | 1009.1 |
| 20260505081443 | 55 | 332 | 2.0 | 7.0 | 0.00 | 0.07 | 0.07 | 53 | 1009.0 |
| 20260505080942 | 55 | 101 | 3.0 | 11.0 | 0.00 | 0.07 | 0.07 | 51 | 1009.0 |
| 20260505080442 | 55 | 5 | 3.0 | 14.0 | 0.00 | 0.07 | 0.07 | 52 | 1008.8 |
| 20260505075943 | 55 | 333 | 3.0 | 14.0 | 0.00 | 0.07 | 0.07 | 51 | 1008.4 |
| 20260505074941 | 55 | 150 | 3.0 | 9.0 | 0.00 | 0.07 | 0.07 | 53 | 1008.3 |
| 20260505073937 | 55 | 5 | 3.0 | 11.0 | 0.01 | 0.07 | 0.07 | 53 | 1008.5 |
| 20260505073436 | 55 | 88 | 3.0 | 11.0 | 0.01 | 0.07 | 0.07 | 56 | 1008.3 |
| 20260505072936 | 54 | 325 | 3.0 | 12.0 | 0.02 | 0.07 | 0.07 | 58 | 1008.5 |
| 20260505072437 | 54 | 9 | 3.0 | 12.0 | 0.03 | 0.07 | 0.07 | 58 | 1008.4 |
| 20260505071936 | 54 | 123 | 3.0 | 8.0 | 0.03 | 0.07 | 0.07 | 61 | 1008.4 |
| 20260505071437 | 54 | 239 | 3.0 | 8.0 | 0.04 | 0.07 | 0.07 | 64 | 1008.3 |
| 20260505070930 | 53 | 46 | 2.0 | 8.0 | 0.05 | 0.07 | 0.07 | 67 | 1008.2 |
| 20260505070423 | 53 | 37 | 2.0 | 4.0 | 0.05 | 0.07 | 0.07 | 69 | 1008.8 |
| 20260505065411 | 53 | 57 | 1.0 | 3.0 | 0.07 | 0.07 | 0.07 | 71 | 1009.3 |
| 20260505064908 | 54 | 96 | 1.0 | 3.0 | 0.07 | 0.07 | 0.07 | 71 | 1009.7 |
| 20260505063854 | 55 | 236 | 1.0 | 3.0 | 0.06 | 0.06 | 0.06 | 70 | 1009.8 |
| 20260505063351 | 55 | 9 | 1.0 | 3.0 | 0.05 | 0.05 | 0.06 | 68 | 1008.2 |
| 20260505062842 | 56 | 18 | 1.0 | 4.0 | 0.05 | 0.05 | 0.05 | 67 | 1009.4 |
| 20260505061830 | 57 | 305 | 2.0 | 8.0 | 0.03 | 0.03 | 0.04 | 64 | 1009.8 |
| 20260505061323 | 58 | 285 | 2.0 | 7.0 | 0.03 | 0.03 | 0.03 | 62 | 1009.2 |
| 20260505060818 | 59 | 315 | 3.0 | 8.0 | 0.02 | 0.02 | 0.02 | 60 | 1009.4 |
| 20260505060312 | 60 | 286 | 3.0 | 12.0 | 0.01 | 0.01 | 0.02 | 58 | 1009.8 |
| 20260505054754 | 63 | 14 | 3.0 | 9.0 | 0.00 | 0.00 | 0.00 | 44 | 1007.8 |
| 20260505054248 | 64 | 302 | 3.0 | 9.0 | 0.00 | 0.00 | 0.00 | 42 | 1007.6 |
| 20260505053742 | 64 | 48 | 3.0 | 8.0 | 0.00 | 0.00 | 0.00 | 41 | 1007.5 |